OK1KZE-6 Weather Reports


time (UTC)temp
C
wind
direction
speed
KPH
gust
KPH
rain 1hr
cm
rain 24hr
cm
rain mn
cm
humidity
%
barometer
mb
20260505041508 13 126 8.0 9.7 0.00 0.00 0.00 86 1011.1
20260505041008 13 101 6.4 8.0 0.00 0.00 0.00 82 1011.2
20260505040508 12 154 6.4 9.7 0.00 0.00 0.00 89 1011.0
20260505040009 12 172 8.0 9.7 0.00 0.00 0.00 87 1011.2
20260505035007 13 124 11.3 12.9 0.00 0.00 0.00 84 1011.2
20260505034506 13 133 11.3 14.5 0.00 0.00 0.00 84 1011.0
20260505034007 13 120 8.0 9.7 0.00 0.00 0.00 80 1011.0
20260505033508 13 111 9.7 12.9 0.00 0.00 0.00 81 1011.2
20260505032507 13 121 9.7 11.3 0.00 0.00 0.00 83 1011.2
20260505032007 13 105 9.7 9.7 0.00 0.00 0.00 84 1011.2
20260505031508 13 111 8.0 9.7 0.00 0.00 0.00 84 1011.4
20260505031008 13 108 6.4 6.4 0.00 0.00 0.00 80 1011.3
20260505030508 13 115 8.0 9.7 0.00 0.00 0.00 85 1011.5
20260505030008 13 118 8.0 8.0 0.00 0.00 0.00 84 1011.5
20260505025507 13 119 9.7 9.7 0.00 0.00 0.00 83 1011.5
20260505025007 13 117 9.7 12.9 0.00 0.00 0.00 81 1011.6
20260505024507 14 120 12.9 16.1 0.00 0.00 0.00 79 1011.5
20260505024008 14 113 14.5 16.1 0.00 0.00 0.00 79 1011.6
20260505023507 14 117 17.7 19.3 0.00 0.00 0.00 77 1011.5
20260505023008 15 98 17.7 19.3 0.00 0.00 0.00 72 1011.5
20260505022507 15 98 17.7 19.3 0.00 0.00 0.00 72 1011.6
20260505022007 15 100 19.3 20.9 0.00 0.00 0.00 71 1011.4
20260505021507 15 97 22.5 22.5 0.00 0.00 0.00 71 1011.5
20260505021007 15 89 19.3 20.9 0.00 0.00 0.00 71 1011.3
20260505020508 15 82 19.3 20.9 0.00 0.00 0.00 70 1011.4
20260505020007 15 80 19.3 19.3 0.00 0.00 0.00 71 1011.6
20260505015507 15 78 17.7 19.3 0.00 0.00 0.00 71 1011.4
20260505015008 15 83 17.7 17.7 0.00 0.00 0.00 72 1011.6
20260505014508 15 81 14.5 16.1 0.00 0.00 0.00 72 1011.7
20260505014007 15 86 12.9 14.5 0.00 0.00 0.00 73 1011.6
20260505013507 15 76 12.9 14.5 0.00 0.00 0.00 73 1011.7
20260505013007 15 71 16.1 19.3 0.00 0.00 0.00 73 1011.6
20260505012508 15 85 16.1 19.3 0.00 0.00 0.00 73 1011.6
20260505012006 15 75 12.9 14.5 0.00 0.00 0.00 73 1011.7
20260505011508 15 72 17.7 19.3 0.00 0.00 0.00 73 1012.0
20260505011008 15 75 19.3 20.9 0.00 0.00 0.00 72 1011.9
20260505010508 15 76 14.5 17.7 0.00 0.00 0.00 74 1012.0
20260505010007 15 70 12.9 16.1 0.00 0.00 0.00 72 1011.8
20260505005508 15 68 24.1 24.1 0.00 0.00 0.00 71 1011.9
20260505005009 15 62 22.5 24.1 0.00 0.00 0.00 72 1012.1
20260505004508 15 48 24.1 27.4 0.00 0.00 0.00 74 1012.1
20260505004006 15 75 24.1 27.4 0.00 0.00 0.00 73 1012.2
20260505003508 15 66 33.8 33.8 0.00 0.00 0.00 74 1012.1
20260505003007 15 59 25.7 30.6 0.00 0.00 0.00 75 1012.3
20260505002507 15 79 25.7 35.4 0.00 0.00 0.00 74 1012.1
20260505002007 15 75 27.4 30.6 0.00 0.00 0.00 75 1012.3
20260505001508 14 60 22.5 25.7 0.00 0.00 0.00 79 1012.3
20260505001009 15 77 24.1 25.7 0.00 0.00 0.00 75 1012.1
20260505000508 15 80 30.6 33.8 0.00 0.00 0.00 72 1012.5
20260505000008 15 88 35.4 37.0 0.00 0.00 0.00 71 1012.0
20260504235508 16 88 37.0 43.5 0.00 0.00 0.00 70 1012.1
20260504235007 15 86 37.0 41.8 0.00 0.00 0.00 72 1012.3
20260504234508 15 84 12.9 17.7 0.00 0.00 0.00 79 1012.4
20260504234007 14 64 16.1 19.3 0.00 0.00 0.00 81 1012.8
20260504233508 15 86 30.6 32.2 0.00 0.00 0.00 76 1012.7
20260504233008 16 93 41.8 49.9 0.00 0.00 0.00 70 1012.3
20260504232507 16 97 53.1 54.7 0.00 0.00 0.00 69 1012.2
20260504232007 16 103 48.3 49.9 0.00 0.00 0.00 67 1012.9
20260504231507 16 106 43.5 45.1 0.00 0.00 0.00 68 1013.1
20260504231007 16 111 43.5 48.3 0.00 0.00 0.00 69 1013.2
20260504230506 14 115 40.2 48.3 0.00 0.00 0.00 79 1013.3
20260504230007 15 114 24.1 37.0 0.00 0.00 0.00 74 1013.8
20260504225507 15 123 24.1 37.0 0.00 0.00 0.00 74 1013.9
20260504225007 15 114 30.6 32.2 0.00 0.00 0.00 71 1014.1
20260504224508 15 118 20.9 22.5 0.00 0.00 0.00 69 1014.1
20260504224006 16 134 25.7 27.4 0.00 0.00 0.00 65 1014.3
20260504223506 17 139 24.1 24.1 0.00 0.00 0.00 61 1014.5
20260504223007 17 158 12.9 14.5 0.00 0.00 0.00 60 1014.6
20260504222507 16 182 11.3 12.9 0.00 0.00 0.00 65 1014.8
20260504222007 16 232 12.9 14.5 0.00 0.00 0.00 64 1015.0
20260504221508 16 180 20.9 30.6 0.00 0.00 0.00 62 1015.1
20260504221007 16 199 11.3 17.7 0.00 0.00 0.00 64 1014.9
20260504220508 16 182 22.5 29.0 0.00 0.00 0.00 60 1014.9
20260504220008 16 191 16.1 27.4 0.00 0.00 0.00 62 1014.4
20260504215507 18 116 16.1 17.7 0.00 0.00 0.00 53 1014.1
20260504215008 18 98 32.2 33.8 0.00 0.00 0.00 50 1014.0
20260504214507 18 96 32.2 33.8 0.00 0.00 0.00 51 1013.7
20260504214007 18 91 32.2 33.8 0.00 0.00 0.00 49 1013.9
20260504213508 18 88 30.6 32.2 0.00 0.00 0.00 50 1014.0
20260504213008 18 89 32.2 32.2 0.00 0.00 0.00 50 1013.6
20260504212508 18 84 30.6 33.8 0.00 0.00 0.00 49 1013.9
20260504212007 18 76 25.7 33.8 0.00 0.00 0.00 49 1013.8
20260504211508 18 78 29.0 30.6 0.00 0.00 0.00 49 1013.9
20260504211007 18 76 27.4 29.0 0.00 0.00 0.00 49 1013.9
20260504210508 18 74 24.1 24.1 0.00 0.00 0.00 49 1013.8
20260504210008 18 66 19.3 24.1 0.00 0.00 0.00 50 1014.0
20260504205508 18 80 24.1 27.4 0.00 0.00 0.00 49 1014.0
20260504204508 18 86 24.1 27.4 0.00 0.00 0.00 49 1014.0
20260504204007 18 95 27.4 30.6 0.00 0.00 0.00 48 1013.9
20260504203508 18 95 27.4 29.0 0.00 0.00 0.00 50 1013.9
20260504203008 18 95 29.0 29.0 0.00 0.00 0.00 48 1014.1
20260504202508 18 92 29.0 30.6 0.00 0.00 0.00 48 1014.1
20260504202007 19 94 29.0 30.6 0.00 0.00 0.00 48 1014.0
20260504201508 19 94 30.6 33.8 0.00 0.00 0.00 48 1014.0
20260504201007 19 96 30.6 32.2 0.00 0.00 0.00 48 1014.0
20260504200508 19 96 30.6 30.6 0.00 0.00 0.00 49 1014.2
20260504200008 19 97 29.0 30.6 0.00 0.00 0.00 49 1014.1
20260504195508 19 98 30.6 32.2 0.00 0.00 0.00 48 1014.1
20260504195009 19 97 32.2 33.8 0.00 0.00 0.00 49 1014.2
20260504194508 19 100 30.6 32.2 0.00 0.00 0.00 49 1014.2
20260504194007 19 99 32.2 32.2 0.00 0.00 0.00 49 1014.2
20260504193508 19 99 33.8 33.8 0.00 0.00 0.00 50 1014.1
20260504193007 19 98 32.2 33.8 0.00 0.00 0.00 49 1014.1
20260504192507 19 99 33.8 33.8 0.00 0.00 0.00 49 1014.2
20260504192007 19 95 32.2 33.8 0.00 0.00 0.00 49 1014.2
20260504191508 19 95 32.2 33.8 0.00 0.00 0.00 49 1014.1
20260504191007 19 98 33.8 35.4 0.00 0.00 0.00 49 1014.1
20260504190507 19 97 33.8 33.8 0.00 0.00 0.00 49 1014.0
20260504190008 20 95 35.4 37.0 0.00 0.00 0.00 48 1014.0
20260504185507 20 92 33.8 33.8 0.00 0.00 0.00 47 1014.1
20260504185008 20 92 35.4 35.4 0.00 0.00 0.00 47 1014.1
20260504184507 20 94 33.8 35.4 0.00 0.00 0.00 47 1013.9
20260504184007 20 91 32.2 33.8 0.00 0.00 0.00 47 1013.9
20260504183508 20 89 32.2 33.8 0.00 0.00 0.00 47 1013.8
20260504183007 20 89 32.2 35.4 0.00 0.00 0.00 46 1013.9
20260504182507 20 87 32.2 35.4 0.00 0.00 0.00 46 1013.9
20260504182007 20 91 33.8 35.4 0.00 0.00 0.00 46 1013.8
20260504181009 20 87 30.6 30.6 0.00 0.00 0.00 48 1014.1
20260504180506 20 88 27.4 30.6 0.00 0.00 0.00 48 1013.9
20260504180008 20 89 33.8 33.8 0.00 0.00 0.00 47 1013.9
20260504175507 20 93 30.6 33.8 0.00 0.00 0.00 47 1014.0
20260504175008 20 87 30.6 32.2 0.00 0.00 0.00 46 1014.1
20260504174507 20 83 30.6 30.6 0.00 0.00 0.00 46 1014.1
20260504174008 20 84 27.4 29.0 0.00 0.00 0.00 46 1014.0
20260504173509 20 88 29.0 30.6 0.00 0.00 0.00 45 1014.2
20260504173008 20 87 29.0 30.6 0.00 0.00 0.00 45 1014.2
20260504172508 20 87 30.6 33.8 0.00 0.00 0.00 45 1014.0
20260504172008 20 87 32.2 33.8 0.00 0.00 0.00 45 1014.2
20260504171508 20 91 25.7 32.2 0.00 0.00 0.00 46 1014.3
20260504171007 20 83 33.8 35.4 0.00 0.00 0.00 45 1014.2
20260504170508 21 82 32.2 33.8 0.00 0.00 0.00 46 1014.3
20260504151007 21 84 22.5 25.7 0.00 0.00 0.00 42 1015.1
20260504150507 22 89 27.4 30.6 0.00 0.00 0.00 42 1014.9
20260504141007 22 101 19.3 24.1 0.00 0.00 0.00 42 1015.3
20260504140508 22 84 14.5 17.7 0.00 0.00 0.00 40 1015.6
20260504130508 21 93 25.7 27.4 0.00 0.00 0.00 42 1015.6
20260504110508 19 66 19.3 19.3 0.00 0.00 0.00 46 1016.8
20260504100509 18 63 22.5 22.5 0.00 0.00 0.00 47 1017.1
20260504082007 16 48 22.5 24.1 0.00 0.00 0.00 54 1016.7
20260504081507 16 46 16.1 19.3 0.00 0.00 0.00 54 1016.6
20260504081008 16 54 22.5 24.1 0.00 0.00 0.00 56 1016.6
20260504080508 16 33 12.9 14.5 0.00 0.00 0.00 56 1016.8
20260504050508 12 113 27.4 29.0 0.00 0.00 0.00 65 1015.3
20260504050008 11 117 29.0 30.6 0.00 0.00 0.00 66 1015.2
20260504045507 11 111 25.7 29.0 0.00 0.00 0.00 66 1015.1
20260504045008 11 107 24.1 27.4 0.00 0.00 0.00 67 1015.3
20260504044508 11 113 20.9 22.5 0.00 0.00 0.00 67 1015.1
20260504044008 11 116 20.9 22.5 0.00 0.00 0.00 66 1015.1
20260504043508 12 101 25.7 29.0 0.00 0.00 0.00 66 1015.0
20260504043008 12 104 9.7 12.9 0.00 0.00 0.00 64 1015.1
20260504042507 12 77 11.3 12.9 0.00 0.00 0.00 64 1014.8
20260504042007 12 74 9.7 11.3 0.00 0.00 0.00 64 1015.0